Thomson, GA

3:20 AM EDT on October 15, 2019 (GMT -0400)
Thomson-McDuffie County

Weather History for KHQU - August, 2019

Change the Weather History Date:

Wednesday, August 14, 2019

  Actual Average (KDNL) Record (KDNL)
Temperature  
Mean Temperature 84 °F -  
Max Temperature 95 °F 88 °F 102 °F (1999)
Min Temperature 73 °F 69 °F 66 °F (1996)
Cooling Degree Days 19    
Growing Degree Days 34 (Base 50)    
Moisture  
Dew Point 73 °F    
Average Humidity 75    
Maximum Humidity 98    
Minimum Humidity 46    
Precipitation  
Precipitation 0.01 in - - ()
Sea Level Pressure  
Sea Level Pressure 29.91 in    
Wind  
Wind Speed 5 mph (NNW)    
Max Wind Speed 14 mph    
Max Gust Speed 21 mph    
Visibility 10 miles    
Events Rain , Thunderstorm    
Averages and records for this station are not official NWS values.
T = Trace of Precipitation, MM = Missing Value Source: NWS Daily Summary

Daily Weather History Graph

Daily Weather History Graph

Search for Another Location

Airport or City:

Astronomy

Aug. 14, 2019 Rise Set
Actual Time 6:51 AM EDT 8:17 PM EDT
Civil Twilight 6:25 AM EDT 8:43 PM EDT
Nautical Twilight 5:53 AM EDT 9:15 PM EDT
Astronomical Twilight 5:20 AM EDT 9:48 PM EDT
Moon 8:07 PM EDT (8/14) 5:52 AM EDT (8/14)
Length of Visible Light 14h 18m
Length of Day
13h 26m
Waxing Gibbous, 99% of the Moon is Illuminated
Aug 14
Waxing Gibbous
Aug 15
Full
Aug 23
Last Quarter
Aug 30
New
Sep 5
First Quarter

Hourly Weather History & Observations

Time (EDT) Temp. Heat Index Dew Point Humidity Pressure Visibility Wind Dir Wind Speed Gust Speed Precip Events Conditions
12:15 AM 80.8 °F 86.9 °F 75.9 °F 85% 29.90 in 10.0 mi WSW 4.6 mph - N/A   Clear
12:35 AM 81.0 °F 87.3 °F 76.1 °F 85% 29.90 in 10.0 mi West 3.5 mph - N/A   Clear
12:55 AM 80.6 °F 86.6 °F 75.9 °F 86% 29.91 in 10.0 mi NW 3.5 mph - N/A   Clear
1:15 AM 82.8 °F 90.1 °F 75.4 °F 78% 29.93 in 10.0 mi NE 11.5 mph - N/A   Mostly Cloudy
1:35 AM 82.6 °F 86.4 °F 69.6 °F 65% 29.94 in 10.0 mi ENE 9.2 mph 18.4 mph N/A   Overcast
1:55 AM 79.5 °F - 69.3 °F 71% 29.94 in 10.0 mi NE 6.9 mph - N/A   Overcast
2:15 AM 77.9 °F - 70.2 °F 77% 29.94 in 10.0 mi NE 8.1 mph - N/A Thunderstorm Overcast
2:35 AM 77.2 °F - 70.7 °F 80% 29.94 in 10.0 mi NNE 6.9 mph - N/A Thunderstorm Mostly Cloudy
2:55 AM 77.2 °F - 71.6 °F 83% 29.93 in 10.0 mi NE 9.2 mph - N/A Thunderstorm Mostly Cloudy
3:15 AM 76.6 °F - 72.0 °F 85% 29.95 in 10.0 mi North 11.5 mph - N/A Thunderstorm Mostly Cloudy
3:35 AM 77.2 °F - 71.8 °F 83% 29.95 in 10.0 mi North 13.8 mph 20.7 mph N/A   Overcast
3:55 AM 77.0 °F - 72.0 °F 84% 29.92 in 10.0 mi NNW 8.1 mph - N/A Rain , Thunderstorm Light Thunderstorms and Rain
4:15 AM 75.7 °F - 72.9 °F 91% 29.91 in 10.0 mi NW 5.8 mph - N/A Rain Light Rain
4:35 AM 74.1 °F - 72.9 °F 96% 29.90 in 10.0 mi Calm Calm - N/A Rain Light Rain
4:55 AM 74.3 °F - 73.4 °F 97% 29.89 in 10.0 mi Calm Calm - 0.01 in Rain Light Rain
5:15 AM 73.9 °F - 73.2 °F 98% 29.89 in 10.0 mi West 6.9 mph - N/A   Scattered Clouds
5:35 AM 74.3 °F - 73.6 °F 98% 29.89 in 10.0 mi North 4.6 mph - N/A   Scattered Clouds
5:55 AM 74.1 °F - 73.6 °F 98% 29.90 in 10.0 mi Calm Calm - N/A   Scattered Clouds
6:15 AM 74.3 °F - 73.4 °F 97% 29.90 in 10.0 mi Calm Calm - N/A   Clear
6:35 AM 73.9 °F - 73.2 °F 98% 29.91 in 10.0 mi Calm Calm - N/A   Clear
6:55 AM 73.9 °F - 73.4 °F 98% 29.92 in 10.0 mi SE 4.6 mph - N/A   Clear
7:15 AM 74.1 °F - 73.6 °F 98% 29.92 in 10.0 mi East 3.5 mph - N/A   Clear
7:35 AM 74.3 °F - 73.8 °F 98% 29.92 in 10.0 mi Calm Calm - N/A   Clear
7:55 AM 75.0 °F - 73.8 °F 96% 29.91 in 10.0 mi Calm Calm - N/A   Clear
8:15 AM 75.9 °F - 74.3 °F 95% 29.91 in 10.0 mi SE 3.5 mph - N/A   Clear
8:35 AM 76.5 °F - 73.9 °F 92% 29.91 in 10.0 mi Calm Calm - N/A   Scattered Clouds
8:55 AM 76.5 °F - 73.9 °F 92% 29.93 in 10.0 mi Calm Calm - N/A   Mostly Cloudy
9:15 AM 78.1 °F - 74.3 °F 88% 29.93 in 10.0 mi NNE 3.5 mph - N/A   Mostly Cloudy
9:35 AM 79.7 °F - 73.2 °F 80% 29.93 in 10.0 mi North 3.5 mph - N/A   Scattered Clouds
9:55 AM 79.7 °F - 73.4 °F 81% 29.93 in 10.0 mi NE 3.5 mph - N/A   Scattered Clouds
10:15 AM 81.3 °F 86.5 °F 73.6 °F 77% 29.93 in 10.0 mi ENE 3.5 mph - N/A   Scattered Clouds
10:35 AM 80.6 °F 85.5 °F 73.8 °F 80% 29.94 in 10.0 mi Calm Calm - N/A   Scattered Clouds
10:55 AM 82.0 °F 87.7 °F 73.6 °F 75% 29.94 in 10.0 mi Calm Calm - N/A   Clear
11:15 AM 84.9 °F 91.4 °F 72.7 °F 67% 29.94 in 10.0 mi NNW 5.8 mph - N/A   Clear
11:35 AM 85.6 °F 93.0 °F 73.8 °F 67% 29.93 in 10.0 mi North 4.6 mph - N/A   Clear
11:55 AM 85.8 °F 92.2 °F 72.3 °F 64% 29.94 in 10.0 mi NW 4.6 mph - N/A   Clear
12:15 PM 86.7 °F 94.1 °F 73.2 °F 64% 29.94 in 10.0 mi North 4.6 mph - N/A   Clear
12:35 PM 86.9 °F 95.4 °F 74.3 °F 66% 29.93 in 10.0 mi North 3.5 mph - N/A   Clear
12:55 PM 89.1 °F 97.5 °F 73.4 °F 60% 29.93 in 10.0 mi NW 3.5 mph - N/A   Clear
1:15 PM 90.0 °F 97.9 °F 73.0 °F 57% 29.93 in 10.0 mi North 4.6 mph - N/A   Clear
1:35 PM 89.1 °F 97.0 °F 73.2 °F 59% 29.92 in 10.0 mi NE 4.6 mph - N/A   Clear
1:55 PM 91.9 °F 100.1 °F 72.3 °F 53% 29.92 in 10.0 mi North 6.9 mph - N/A   Clear
2:15 PM 91.4 °F 99.5 °F 72.9 °F 54% 29.91 in 10.0 mi Calm Calm - N/A   Clear
2:35 PM 92.7 °F 101.1 °F 72.9 °F 52% 29.90 in 10.0 mi North 6.9 mph - N/A   Clear
2:55 PM 93.4 °F 102.8 °F 73.2 °F 52% 29.88 in 10.0 mi NNW 4.6 mph - N/A   Clear
3:15 PM 93.6 °F 101.3 °F 71.6 °F 49% 29.86 in 10.0 mi NNE 4.6 mph - N/A   Clear
3:35 PM 93.6 °F 102.5 °F 72.9 °F 51% 29.84 in 10.0 mi ENE 6.9 mph - N/A   Clear
3:55 PM 94.5 °F 103.3 °F 72.5 °F 49% 29.84 in 10.0 mi North 8.1 mph - N/A   Clear
4:35 PM 95.0 °F 102.5 °F 71.4 °F 46% 29.84 in 10.0 mi Calm Calm - N/A   Clear
4:55 PM 95.2 °F 104.2 °F 72.9 °F 48% 29.84 in 10.0 mi NW 4.6 mph - N/A   Clear
5:15 PM 94.1 °F 103.1 °F 72.7 °F 50% 29.84 in 10.0 mi NNW 3.5 mph - N/A   Clear
5:35 PM 93.6 °F 104.5 °F 74.5 °F 54% 29.85 in 10.0 mi West 3.5 mph - N/A   Clear
5:55 PM 94.8 °F 104.1 °F 73.2 °F 49% 29.86 in 10.0 mi West 4.6 mph - N/A   Clear
6:15 PM 93.9 °F 103.4 °F 73.2 °F 51% 29.86 in 10.0 mi Calm Calm - N/A   Clear
6:35 PM 92.7 °F 101.7 °F 73.0 °F 53% 29.86 in 10.0 mi WNW 3.5 mph - N/A   Clear
6:55 PM 92.3 °F 102.2 °F 74.1 °F 55% 29.85 in 10.0 mi West 3.5 mph - N/A   Scattered Clouds
7:15 PM 88.7 °F 99.3 °F 75.4 °F 65% 29.87 in 10.0 mi West 9.2 mph 19.6 mph N/A   Mostly Cloudy
7:35 PM 86.5 °F 95.0 °F 74.3 °F 67% 29.87 in 10.0 mi West 10.4 mph 17.3 mph N/A   Overcast
7:55 PM 84.6 °F 91.7 °F 73.9 °F 70% 29.88 in 10.0 mi WSW 5.8 mph - N/A   Mostly Cloudy
8:15 PM 83.3 °F 89.3 °F 72.9 °F 71% 29.89 in 10.0 mi WSW 5.8 mph - N/A   Scattered Clouds
8:35 PM 83.1 °F 88.6 °F 72.5 °F 70% 29.88 in 10.0 mi West 5.8 mph - N/A   Mostly Cloudy
8:55 PM 81.7 °F 86.7 °F 72.9 °F 74% 29.89 in 10.0 mi West 4.6 mph - N/A   Scattered Clouds
9:15 PM 81.1 °F 86.2 °F 73.4 °F 77% 29.90 in 10.0 mi WNW 3.5 mph - N/A   Clear
9:35 PM 81.5 °F 87.4 °F 74.3 °F 79% 29.92 in 10.0 mi Calm Calm - N/A   Clear
9:55 PM 80.6 °F 85.9 °F 74.7 °F 82% 29.94 in 10.0 mi Calm Calm - N/A   Scattered Clouds
10:15 PM 81.1 °F 87.2 °F 75.0 °F 82% 29.94 in 10.0 mi WNW 5.8 mph - N/A   Mostly Cloudy
10:35 PM 81.1 °F 87.2 °F 75.2 °F 82% 29.96 in 10.0 mi Calm Calm - N/A   Mostly Cloudy
10:55 PM 80.4 °F 86.0 °F 75.4 °F 85% 29.96 in 10.0 mi WSW 3.5 mph - N/A   Overcast
11:15 PM 80.1 °F 85.4 °F 75.9 °F 87% 29.96 in 10.0 mi WSW 3.5 mph - N/A Rain Light Rain
11:35 PM 79.3 °F - 75.6 °F 88% 29.96 in 10.0 mi WSW 3.5 mph - N/A   Overcast
11:55 PM 78.3 °F - 73.6 °F 85% 29.95 in 10.0 mi WSW 5.8 mph - N/A Thunderstorm Overcast